Change the Weather History Date:

Sunday, April 7, 2013

  Actual Average Record
Temperature  
Mean Temperature 76 °F -  
Max Temperature 89 °F 79 °F 104 °F (1989)
Min Temperature 63 °F 51 °F 48 °F (1975)
Cooling Degree Days 10    
Growing Degree Days 26 (Base 50)    
Moisture  
Dew Point 35 °F    
Average Humidity 23    
Maximum Humidity 32    
Minimum Humidity 15    
Precipitation  
Precipitation 0.00 in - - ()
Sea Level Pressure  
Sea Level Pressure 29.74 in    
Wind  
Wind Speed 5 mph (SW)    
Max Wind Speed 12 mph    
Max Gust Speed -    
Visibility 10 miles    
Events      
Averages and records for this station are not official NWS values.
T = Trace of Precipitation, MM = Missing Value Source: NWS Daily Summary

Daily Weather History Graph

Daily Weather History Graph

Search for Another Location

Airport or City:

Trip Planner

Search our weather history database for the weather conditions in past years. The results will help you decide how hot, cold, wet, or windy it might be!

Date:

Astronomy

Apr. 07, 2013 Rise Set
Actual Time 6:18 AM PDT 7:04 PM PDT
Civil Twilight 5:52 AM PDT 7:29 PM PDT
Nautical Twilight 5:23 AM PDT 7:59 PM PDT
Astronomical Twilight 4:52 AM PDT 8:29 PM PDT
Moon 4:30 AM PDT (4/7) 4:46 PM PDT (4/7)
Length of Visible Light 13h 36m
Length of Day
12h 46m
Waning Crescent, 7% of the Moon is Illuminated
Apr 7
Waning Crescent
Apr 10
New
Apr 18
First Quarter
Apr 25
Full
May 2
Last Quarter

Hourly Weather History & Observations

Time (PDT) Temp. Dew Point Humidity Pressure Visibility Wind Dir Wind Speed Gust Speed Precip Events Conditions
12:52 AM 70.0 °F 32.0 °F 25% 29.79 in 10.0 mi WNW 4.6 mph - N/A   Clear
1:52 AM 68.0 °F 30.0 °F 24% 29.79 in 10.0 mi WNW 6.9 mph - N/A   Clear
2:52 AM 68.0 °F 30.9 °F 25% 29.78 in 10.0 mi SSW 3.5 mph - N/A   Clear
3:52 AM 69.1 °F 32.0 °F 25% 29.77 in 10.0 mi Calm Calm - N/A   Clear
4:52 AM 64.0 °F 32.0 °F 30% 29.78 in 10.0 mi WNW 8.1 mph - N/A   Clear
5:52 AM 63.0 °F 32.0 °F 31% 29.78 in 10.0 mi WSW 3.5 mph - N/A   Clear
6:52 AM 63.0 °F 32.0 °F 31% 29.81 in 10.0 mi Calm Calm - N/A   Clear
7:52 AM 69.1 °F 33.1 °F 26% 29.82 in 10.0 mi NW 4.6 mph - N/A   Clear
9:52 AM 79.0 °F 35.1 °F 20% 29.84 in 10.0 mi Calm Calm - N/A   Clear
10:52 AM 80.1 °F 35.1 °F 20% 29.84 in 10.0 mi Calm Calm - N/A   Clear
11:52 AM 82.9 °F 35.1 °F 18% 29.81 in 10.0 mi Calm Calm - N/A   Clear
12:52 PM 84.0 °F 34.0 °F 17% 29.79 in 10.0 mi SE 4.6 mph - N/A   Clear
1:52 PM 87.1 °F 35.1 °F 16% 29.76 in 10.0 mi South 5.8 mph - N/A   Clear
2:52 PM 88.0 °F 34.0 °F 15% 29.74 in 10.0 mi WSW 6.9 mph - N/A   Clear
3:52 PM 87.1 °F 37.9 °F 18% 29.70 in 10.0 mi ESE 6.9 mph - N/A   Clear
4:52 PM 88.0 °F 37.0 °F 16% 29.68 in 10.0 mi SSE 9.2 mph - N/A   Clear
5:52 PM 87.1 °F 37.0 °F 17% 29.66 in 10.0 mi SSE 8.1 mph - N/A   Clear
6:52 PM 84.9 °F 37.0 °F 18% 29.64 in 10.0 mi SSE 3.5 mph - N/A   Clear
7:52 PM 82.0 °F 37.9 °F 21% 29.63 in 10.0 mi SSW 8.1 mph - N/A   Clear
8:52 PM 81.0 °F 39.0 °F 22% 29.65 in 10.0 mi SW 11.5 mph - N/A   Clear
9:52 PM 77.0 °F 39.9 °F 26% 29.65 in 10.0 mi SW 6.9 mph - N/A   Clear
10:52 PM 77.0 °F 42.1 °F 29% 29.65 in 10.0 mi SSW 6.9 mph - N/A   Clear
11:52 PM 75.0 °F 43.0 °F 32% 29.63 in 10.0 mi SW 6.9 mph - N/A   Clear